EW8331 Weather Reports


Display with metric or nautical units.
time (UTC)temp
F
wind
direction
speed
MPH
gust
MPH
rain 1hr
in
rain 24hr
in
rain mn
in
humidity
%
barometer
mb
20260506144527 54 205 0.0 3.0 0.00 0.03 0.00 89 1020.5
20260506143023 54 208 0.0 2.0 0.00 0.03 0.00 91 1020.4
20260506141520 53 208 0.0 1.0 0.00 0.03 0.00 92 1020.3
20260506140020 53 208 0.0 0.0 0.00 0.03 0.00 92 1020.0
20260506134527 53 208 0.0 0.0 0.00 0.03 0.00 93 1019.9
20260506133013 52 208 0.0 0.0 0.00 0.03 0.00 93 1019.8
20260506131511 52 208 0.0 0.0 0.00 0.03 0.00 93 1019.7
20260506130010 52 208 0.0 0.0 0.00 0.03 0.00 94 1019.6
20260506124512 52 208 0.0 0.0 0.00 0.03 0.00 94 1019.5
20260506123006 52 208 0.0 0.0 0.00 0.03 0.00 94 1019.4
20260506121508 52 208 0.0 0.0 0.00 0.03 0.00 94 1019.4
20260506120004 51 208 0.0 0.0 0.00 0.03 0.00 94 1019.3
20260506114557 51 208 0.0 0.0 0.00 0.04 0.00 94 1019.3
20260506113054 51 208 0.0 0.0 0.00 0.04 0.00 94 1019.2
20260506111609 51 208 0.0 0.0 0.00 0.04 0.00 94 1019.0
20260506110052 51 208 0.0 0.0 0.00 0.04 0.00 94 1018.9
20260506104547 50 208 0.0 0.0 0.00 0.06 0.00 94 1018.8
20260506103042 50 208 0.0 0.0 0.00 0.06 0.00 94 1018.9
20260506101542 50 208 0.0 0.0 0.00 0.06 0.00 94 1018.8
20260506100040 49 208 0.0 0.0 0.00 0.06 0.00 94 1018.6
20260506094540 49 208 0.0 0.0 0.00 0.06 0.00 94 1018.7
20260506093038 49 208 0.0 0.0 0.00 0.06 0.00 93 1018.5
20260506091537 49 208 0.0 0.0 0.00 0.06 0.00 93 1018.7
20260506090035 49 208 0.0 0.0 0.00 0.06 0.00 93 1018.8
20260506084534 49 208 0.0 0.0 0.00 0.06 0.00 93 1018.8
20260506083034 49 208 0.0 0.0 0.00 0.06 0.00 93 1018.7
20260506081541 49 208 0.0 0.0 0.00 0.06 0.00 93 1018.8
20260506073029 49 208 0.0 0.0 0.00 0.06 0.00 91 1018.6
20260506071523 50 208 0.0 0.0 0.00 0.06 0.00 91 1018.4
20260506061525 52 208 0.0 1.0 0.00 0.06 0.06 89 1017.9
20260506044512 55 211 3.0 6.0 0.00 0.06 0.06 84 1017.1
20260506043011 56 181 3.0 6.0 0.00 0.06 0.06 83 1017.0
20260506041506 56 207 2.0 4.0 0.00 0.06 0.06 83 1016.7
20260506040004 56 187 3.0 5.0 0.00 0.06 0.06 82 1016.6
20260506034604 56 224 3.0 6.0 0.00 0.06 0.06 81 1016.6
20260506033056 57 221 3.0 6.0 0.00 0.06 0.06 81 1016.4
20260506031555 57 188 3.0 7.0 0.00 0.06 0.06 81 1016.2
20260506030054 57 212 3.0 10.0 0.00 0.06 0.06 80 1016.0
20260506024600 57 203 3.0 6.0 0.00 0.06 0.06 79 1015.7
20260506023052 58 217 3.0 7.0 0.00 0.06 0.06 78 1015.7
20260506021550 58 231 2.0 6.0 0.00 0.06 0.06 78 1015.5
20260506020105 59 214 2.0 8.0 0.00 0.06 0.06 77 1015.5
20260506014606 59 188 3.0 8.0 0.00 0.06 0.06 77 1015.3
20260506013049 59 148 3.0 8.0 0.00 0.06 0.06 77 1015.2
20260506011612 59 203 4.0 8.0 0.00 0.06 0.06 76 1015.4
20260506010049 60 191 3.0 8.0 0.00 0.06 0.06 75 1015.4
20260506004600 60 218 2.0 7.0 0.00 0.06 0.06 75 1015.3
20260506003149 60 163 3.0 8.0 0.00 0.06 0.06 75 1015.2
20260506001546 60 210 4.0 9.0 0.00 0.06 0.06 75 1015.1
20260506000111 60 216 4.0 8.0 0.00 0.06 0.06 75 1014.9
20260505234548 60 212 4.0 9.0 0.00 0.06 0.06 75 1015.1
20260505233043 60 165 2.0 10.0 0.00 0.06 0.06 77 1015.0
20260505231542 60 225 5.0 8.0 0.00 0.06 0.06 77 1015.1
20260505230058 59 207 4.0 8.0 0.00 0.06 0.06 78 1015.2
20260505224541 59 186 2.0 5.0 0.00 0.06 0.06 79 1015.2
20260505223039 59 214 1.0 6.0 0.00 0.06 0.06 80 1015.2
20260505221535 58 200 3.0 8.0 0.00 0.06 0.06 79 1015.3
20260505220033 58 187 4.0 9.0 0.00 0.06 0.06 80 1015.4
20260505214532 58 197 3.0 7.0 0.00 0.06 0.06 81 1015.5
20260505213033 58 233 4.0 8.0 0.00 0.06 0.06 81 1015.6
20260505211535 58 191 3.0 9.0 0.00 0.06 0.06 82 1015.6
20260505210031 58 207 2.0 6.0 0.00 0.06 0.06 83 1015.4
20260505204532 57 210 1.0 6.0 0.00 0.06 0.06 86 1015.6
20260505203023 56 207 2.0 7.0 0.00 0.06 0.06 86 1015.7
20260505201524 56 215 2.0 6.0 0.00 0.06 0.06 88 1015.7
20260505200020 56 214 3.0 6.0 0.00 0.06 0.06 89 1015.8
20260505194521 55 205 2.0 7.0 0.00 0.06 0.06 90 1015.9
20260505193024 55 224 1.0 6.0 0.00 0.06 0.06 91 1015.8
20260505191516 55 228 3.0 8.0 0.00 0.06 0.06 91 1015.7
20260505190015 55 225 2.0 6.0 0.00 0.06 0.06 92 1015.6
20260505184519 55 212 2.0 6.0 0.00 0.06 0.06 93 1015.6
20260505183017 54 207 0.0 7.0 0.01 0.06 0.06 93 1015.5
20260505181511 54 205 3.0 8.0 0.02 0.06 0.06 94 1015.6
20260505180011 54 218 3.0 8.0 0.03 0.06 0.06 94 1015.5
20260505174506 53 221 3.0 7.0 0.03 0.06 0.06 94 1015.4
20260505173002 53 224 2.0 4.0 0.02 0.05 0.05 94 1015.3
20260505171625 53 216 1.0 5.0 0.01 0.04 0.04 94 1015.2
20260505170059 52 183 3.0 6.0 0.00 0.03 0.03 93 1015.2
20260505164605 52 198 2.0 5.0 0.00 0.03 0.03 92 1015.2
20260505163057 53 205 1.0 6.0 0.00 0.03 0.03 91 1015.0
20260505161557 53 207 2.0 7.0 0.00 0.03 0.03 90 1015.0
20260505153047 53 217 2.0 6.0 0.00 0.03 0.03 90 1014.7
20260505151548 52 194 3.0 6.0 0.00 0.03 0.03 90 1014.7
20260505150106 52 221 4.0 8.0 0.00 0.03 0.03 90 1014.4